Location: Boullarre
(49.1305°N, 3.0047°E)
Time: 09:50:16
(UTC+00:00)

Cosmos 1190 Rocket - Pass Details

Date: 03 February 2023
Orbit: 756 x 778 km, 74.1° (Epoch: 23 March)

Event Time Altitude Azimuth Distance (km) Brightness Sun altitude
Rises 17:33:21 0° 190° (S) 3,247 7.6 -7.8°
Reaches altitude 10° 17:35:45 10° 187° (S) 2,323 6.8 -8.2°
Maximum altitude 17:40:56 61° 108° (ESE) 882 4.1 -9.0°
Drops below altitude 10° 17:46:09 10° 29° (NNE) 2,330 6.1 -9.9°
Sets 17:48:33 0° 26° (NNE) 3,259 6.9 -10.2°
